TimePDT,TemperatureF,Dew PointF,Humidity,Sea Level PressureIn,VisibilityMPH,Wind Direction,Wind SpeedMPH,Gust SpeedMPH,PrecipitationIn,Events,Conditions,WindDirDegrees,DateUTC
12:53 AM,62.1,55.0,78,30.09,10.0,NE,4.6,-,N/A,,Mostly Cloudy,40,2011-10-17 07:53:00
1:53 AM,61.0,55.0,81,30.09,10.0,NNE,4.6,-,N/A,,Mostly Cloudy,20,2011-10-17 08:53:00
2:53 AM,60.8,55.4,82,30.09,10.0,NNE,3.5,-,N/A,,Mostly Cloudy,30,2011-10-17 09:53:00
3:53 AM,60.1,55.0,83,30.09,10.0,NNE,4.6,-,N/A,,Scattered Clouds,20,2011-10-17 10:53:00
4:53 AM,61.0,54.0,78,30.09,10.0,NE,3.5,-,N/A,,Partly Cloudy,40,2011-10-17 11:53:00
5:53 AM,59.0,54.0,83,30.10,10.0,NE,4.6,-,N/A,,Partly Cloudy,40,2011-10-17 12:53:00
6:53 AM,60.8,55.4,82,30.10,10.0,ESE,5.8,-,N/A,,Partly Cloudy,110,2011-10-17 13:53:00
7:53 AM,60.1,54.0,80,30.11,10.0,East,6.9,-,N/A,,Partly Cloudy,90,2011-10-17 14:53:00
8:53 AM,63.0,55.9,78,30.12,8.0,East,4.6,-,N/A,,Partly Cloudy,90,2011-10-17 15:53:00
9:53 AM,63.0,57.0,81,30.12,7.0,SE,6.9,-,N/A,,Partly Cloudy,130,2011-10-17 16:53:00
10:53 AM,69.1,59.0,70,30.11,10.0,South,3.5,-,N/A,,Partly Cloudy,190,2011-10-17 17:53:00
11:53 AM,73.0,59.0,61,30.09,10.0,West,3.5,-,N/A,,Partly Cloudy,260,2011-10-17 18:53:00
12:53 PM,75.9,59.0,56,30.07,10.0,West,6.9,-,N/A,,Partly Cloudy,260,2011-10-17 19:53:00
1:53 PM,80.1,57.9,47,30.04,10.0,NW,5.8,-,N/A,,Partly Cloudy,310,2011-10-17 20:53:00
2:53 PM,84.0,59.0,43,30.01,10.0,West,6.9,-,N/A,,Partly Cloudy,270,2011-10-17 21:53:00
3:53 PM,82.0,62.1,51,30.01,10.0,West,6.9,-,N/A,,Partly Cloudy,270,2011-10-17 22:53:00
4:53 PM,82.9,60.1,46,30.00,10.0,WNW,11.5,-,N/A,,Clear,300,2011-10-17 23:53:00
5:53 PM,77.0,60.1,56,30.00,10.0,NW,9.2,-,N/A,,Clear,310,2011-10-18 00:53:00
6:53 PM,73.9,61.0,64,30.01,10.0,WNW,5.8,-,N/A,,Clear,300,2011-10-18 01:53:00
7:53 PM,73.9,59.0,59,30.01,10.0,Calm,Calm,-,N/A,,Clear,0,2011-10-18 02:53:00
8:53 PM,72.0,62.1,71,30.02,10.0,Calm,Calm,-,N/A,,Clear,0,2011-10-18 03:53:00
9:53 PM,68.0,57.9,70,30.03,10.0,Calm,Calm,-,N/A,,Clear,0,2011-10-18 04:53:00
10:53 PM,70.0,61.0,73,30.03,10.0,NW,4.6,-,N/A,,Clear,310,2011-10-18 05:53:00
11:53 PM,66.0,59.0,78,30.03,10.0,Calm,Calm,-,N/A,,Clear,0,2011-10-18 06:53:00